Weather History for K0A9 - February, 2014

Change the Weather History Date:

Tuesday, February 4, 2014

  Actual Average (KTRI) Record (KTRI)
Temperature  
Mean Temperature 40 °F 37 °F  
Max Temperature 55 °F 47 °F 68 °F (1962)
Min Temperature 26 °F 26 °F -9 °F (1996)
Degree Days  
Heating Degree Days 24 28  
Month to date heating degree days 114  
Since 1 July heating degree days 2768  
Cooling Degree Days 0 0  
Month to date cooling degree days 0  
Year to date cooling degree days 0  
Moisture  
Dew Point 36 °F    
Average Humidity 82    
Maximum Humidity 100    
Minimum Humidity 58    
Precipitation  
Precipitation 0.00 in 0.13 in 1.76 in (1943)
Month to date precipitation 0.50  
Year to date precipitation 3.87  
Snow  
Snow 0.00 in 0.10 in - ()
Month to date snowfall 0.5  
Since 1 July snowfall 7.9  
Snow Depth -    
Sea Level Pressure  
Sea Level Pressure 30.10 in    
Wind  
Wind Speed 3 mph (East)    
Max Wind Speed 15 mph    
Max Gust Speed -    
Visibility 9 miles    
Events Fog , Rain    
T = Trace of Precipitation, MM = Missing Value Source: NWS Daily Summary

Daily Weather History Graph

Daily Weather History Graph

Search for Another Location

Airport or City:

Trip Planner

Search our weather history database for the weather conditions in past years. The results will help you decide how hot, cold, wet, or windy it might be!

Date:

Astronomy

Feb. 04, 2014 Rise Set
Actual Time 7:27 AM EST 5:58 PM EST
Civil Twilight 7:00 AM EST 6:25 PM EST
Nautical Twilight 6:29 AM EST 6:55 PM EST
Astronomical Twilight 5:59 AM EST 7:26 PM EST
Moon 10:15 AM EST (2/4) 11:39 PM EST (2/4)
Length of Visible Light 11h 24m
Length of Day
10h 30m
Waxing Crescent, 29% of the Moon is Illuminated
Feb 4
Waxing Crescent
Feb 6
First Quarter
Feb 14
Full
Feb 22
Last Quarter
Mar 1
New

Hourly Weather History & Observations

Time (EST) Temp. Windchill Dew Point Humidity Pressure Visibility Wind Dir Wind Speed Gust Speed Precip Events Conditions
12:15 AM 30.2 °F - 30.2 °F 100% 30.19 in 10.0 mi Calm Calm - N/A   Partly Cloudy
12:35 AM 30.2 °F - 30.2 °F 100% 30.18 in 10.0 mi Calm Calm - N/A   Clear
12:55 AM 30.2 °F - 30.2 °F 100% 30.19 in 10.0 mi Calm Calm - N/A   Clear
1:15 AM 30.2 °F - 30.2 °F 100% 30.19 in 10.0 mi Calm Calm - N/A   Clear
1:35 AM 30.2 °F - 30.2 °F 100% 30.18 in 10.0 mi Calm Calm - N/A   Clear
1:55 AM 28.4 °F - 28.4 °F 100% 30.18 in 10.0 mi Calm Calm - N/A   Clear
2:15 AM 28.4 °F - 28.4 °F 100% 30.17 in 10.0 mi Calm Calm - N/A   Clear
2:35 AM 28.4 °F - 28.4 °F 100% 30.17 in 10.0 mi Calm Calm - N/A   Clear
2:55 AM 28.4 °F - 28.4 °F 100% 30.17 in 10.0 mi Calm Calm - N/A   Clear
3:15 AM 28.4 °F - 28.4 °F 100% 30.17 in 10.0 mi Calm Calm - N/A   Clear
3:35 AM 26.6 °F - 26.6 °F 100% 30.16 in 8.0 mi Calm Calm - N/A   Clear
3:55 AM 28.4 °F - 26.6 °F 93% 30.16 in 8.0 mi Calm Calm - N/A   Clear
4:15 AM 26.6 °F - 26.6 °F 100% 30.17 in 8.0 mi Calm Calm - N/A   Scattered Clouds
4:35 AM 28.4 °F - 28.4 °F 100% 30.17 in 6.0 mi Calm Calm - N/A   Overcast
4:55 AM 28.4 °F - 28.4 °F 100% 30.18 in 0.2 mi Calm Calm - N/A Fog Light Freezing Fog
5:15 AM 26.6 °F - 26.6 °F 100% 30.18 in 0.5 mi Calm Calm - N/A Fog Light Freezing Fog
5:35 AM 26.6 °F - 26.6 °F 100% 30.19 in 0.8 mi Calm Calm - N/A   Overcast
5:55 AM 26.6 °F - 26.6 °F 100% 30.19 in 1.5 mi Calm Calm - N/A   Overcast
6:15 AM 26.6 °F - 26.6 °F 100% 30.19 in 2.5 mi Calm Calm - N/A   Scattered Clouds
6:35 AM 28.4 °F - 26.6 °F 93% 30.20 in 8.0 mi Calm Calm - N/A   Partly Cloudy
6:55 AM 26.6 °F - 26.6 °F 100% 30.20 in 7.0 mi Calm Calm - N/A   Clear
7:15 AM 26.6 °F - 26.6 °F 100% 30.20 in 8.0 mi Calm Calm - N/A   Clear
7:35 AM 26.6 °F - 26.6 °F 100% 30.20 in 8.0 mi Calm Calm - N/A   Clear
7:55 AM 26.6 °F - 26.6 °F 100% 30.22 in 8.0 mi Calm Calm - N/A   Clear
8:15 AM 26.6 °F - 26.6 °F 100% 30.22 in 8.0 mi Calm Calm - N/A   Clear
8:35 AM 32.0 °F 28.7 °F 32.0 °F 100% 30.22 in 10.0 mi Variable 3.5 mph - N/A   Clear
8:55 AM 35.6 °F 31.7 °F 33.8 °F 93% 30.22 in 10.0 mi East 4.6 mph - N/A   Clear
9:15 AM 39.2 °F 35.0 °F 35.6 °F 87% 30.24 in 10.0 mi East 5.8 mph - N/A   Clear
9:35 AM 41.0 °F 35.2 °F 35.6 °F 81% 30.24 in 10.0 mi ESE 9.2 mph - N/A   Clear
9:55 AM 42.8 °F 37.5 °F 35.6 °F 76% 30.24 in 10.0 mi East 9.2 mph - N/A   Clear
10:15 AM 44.6 °F 39.7 °F 35.6 °F 71% 30.23 in 10.0 mi East 9.2 mph - N/A   Clear
10:35 AM 44.6 °F 39.2 °F 35.6 °F 71% 30.23 in 10.0 mi East 10.4 mph - N/A   Clear
10:55 AM 44.6 °F 39.2 °F 33.8 °F 66% 30.23 in 10.0 mi SE 10.4 mph - N/A   Clear
11:15 AM 44.6 °F 39.2 °F 35.6 °F 71% 30.22 in 10.0 mi ESE 10.4 mph - N/A   Clear
11:35 AM 46.4 °F 41.5 °F 35.6 °F 66% 30.20 in 10.0 mi SE 10.4 mph - N/A   Clear
11:55 AM 46.4 °F 42.4 °F 35.6 °F 66% 30.19 in 10.0 mi ESE 8.1 mph - N/A   Clear
12:15 PM 48.2 °F - 35.6 °F 62% 30.17 in 10.0 mi SE 8.1 mph - N/A   Clear
12:35 PM 48.2 °F - 35.6 °F 62% 30.14 in 10.0 mi ESE 8.1 mph - N/A   Clear
12:55 PM 48.2 °F - 35.6 °F 62% 30.13 in 10.0 mi SE 6.9 mph - N/A   Clear
1:15 PM 48.2 °F - 37.4 °F 66% 30.10 in 10.0 mi ESE 8.1 mph - N/A   Scattered Clouds
1:35 PM 50.0 °F - 37.4 °F 62% 30.09 in 10.0 mi SE 6.9 mph - N/A   Clear
1:55 PM 51.8 °F - 37.4 °F 58% 30.08 in 10.0 mi SE 6.9 mph - N/A   Clear
2:15 PM 51.8 °F - 39.2 °F 62% 30.06 in 10.0 mi ESE 6.9 mph - N/A   Clear
2:35 PM 53.6 °F - 39.2 °F 58% 30.05 in 10.0 mi East 5.8 mph - N/A   Clear
2:55 PM 55.4 °F - 41.0 °F 58% 30.04 in 10.0 mi East 8.1 mph - N/A   Clear
3:15 PM 55.4 °F - 41.0 °F 58% 30.04 in 10.0 mi East 5.8 mph - N/A   Clear
3:35 PM 55.4 °F - 42.8 °F 63% 30.03 in 10.0 mi ESE 5.8 mph - N/A   Clear
3:55 PM 55.4 °F - 42.8 °F 63% 30.03 in 10.0 mi SE 8.1 mph - N/A   Clear
4:15 PM 53.6 °F - 42.8 °F 67% 30.03 in 10.0 mi ESE 8.1 mph - N/A   Clear
4:35 PM 51.8 °F - 41.0 °F 67% 30.03 in 10.0 mi East 8.1 mph - N/A   Clear
4:55 PM 50.0 °F - 41.0 °F 71% 30.03 in 10.0 mi East 9.2 mph - N/A   Clear
5:15 PM 50.0 °F - 41.0 °F 71% 30.02 in 10.0 mi East 8.1 mph - N/A   Clear
5:35 PM 48.2 °F - 39.2 °F 71% 30.02 in 10.0 mi East 9.2 mph - N/A   Scattered Clouds
5:55 PM 48.2 °F - 39.2 °F 71% 30.01 in 10.0 mi East 8.1 mph - N/A   Mostly Cloudy
6:15 PM 48.2 °F - 41.0 °F 76% 29.99 in 10.0 mi East 11.5 mph - N/A   Mostly Cloudy
6:35 PM 48.2 °F - 41.0 °F 76% 29.98 in 10.0 mi East 11.5 mph - N/A   Overcast
7:15 PM 48.2 °F - 42.8 °F 82% 29.97 in 10.0 mi East 8.1 mph - N/A   Clear
7:35 PM 48.2 °F - 42.8 °F 82% 29.96 in 10.0 mi East 8.1 mph - N/A   Scattered Clouds
7:55 PM 50.0 °F - 42.8 °F 76% 29.95 in 10.0 mi East 3.5 mph - N/A   Mostly Cloudy
8:15 PM 50.0 °F - 42.8 °F 76% 29.96 in 10.0 mi East 4.6 mph - N/A   Overcast
8:35 PM 51.8 °F - 42.8 °F 71% 29.95 in 10.0 mi ESE 6.9 mph - N/A   Overcast
8:55 PM 50.0 °F - 44.6 °F 82% 29.95 in 10.0 mi SSE 3.5 mph - N/A   Overcast
9:15 PM 50.0 °F - 44.6 °F 82% 29.94 in 10.0 mi East 5.8 mph - N/A Rain Light Rain
9:35 PM 48.2 °F - 44.6 °F 87% 29.96 in 10.0 mi West 3.5 mph - N/A   Mostly Cloudy
9:55 PM 48.2 °F - 44.6 °F 87% 29.95 in 10.0 mi ESE 4.6 mph - N/A   Mostly Cloudy
10:15 PM 48.2 °F - 44.6 °F 87% 29.95 in 10.0 mi East 4.6 mph - N/A   Overcast
10:35 PM 51.8 °F - 44.6 °F 76% 29.94 in 10.0 mi ENE 8.1 mph - N/A   Light Drizzle
10:55 PM 51.8 °F - 44.6 °F 76% 29.93 in 10.0 mi NE 8.1 mph - N/A   Overcast
11:15 PM 51.8 °F - 44.6 °F 76% 29.90 in 10.0 mi ENE 8.1 mph - N/A   Mostly Cloudy
11:35 PM 51.8 °F - 42.8 °F 71% 29.88 in 10.0 mi ENE 15.0 mph - N/A   Overcast
11:55 PM 53.6 °F - 44.6 °F 72% 29.87 in 10.0 mi NE 9.2 mph - N/A   Overcast